Regional Weather Roundup
Issued by NWS Sterling, VA

Home | Current Version | Previous Version | Graphics & Text | Print | Product List | Glossary On
Versions: 1 2 3 4 5 6 7 8 9 10 11 12 13 14 15 16 17 18 19 20 21 22 23 24 25 26 27
000
ASUS41 KLWX 250110
RWRLWX

REGIONAL WEATHER ROUNDUP
NATIONAL WEATHER SERVICE BALTIMORE MD/WASHINGTON DC
900 PM EDT TUE MAY 24 2016

Note: "FAIR" indicates few or no clouds below 12,000 feet
with no significant weather and/or obstructions to visibility.
 TC=TEMPERATURE CELSIUS

 * =Non NWS site. Station does not report precipitation (e.g. rain,
    snow, etc.), thunder, or fog.

DCZ001-MDZ009-015-VAZ040>042-051-053>054-250200-
WASHINGTON METRO

CITY           SKY/WX    TMP DP  RH WIND       PRES   REMARKS
WASHINGTON NAT FAIR      78  46  32 W5        30.02R
DULLES         FAIR      68  53  58 CALM      30.03R
QUANTICO       FAIR      68  61  78 NW6       30.03R
COLLEGE PARK*  FAIR      70  50  49 CALM      30.01R
LEESBURG*      FAIR      70  55  60 W3        30.04R
MANASSAS*      CLEAR     66  57  72 CALM      30.02S

$$

MDZ006>007-011-014-250200-
BALTIMORE METRO

CITY           SKY/WX    TMP DP  RH WIND       PRES   REMARKS
BWI AIRPORT    CLEAR     71  48  43 SW6       29.99R
MD SCIENCE CTR   N/A     76  45  33 MISG      29.98R
MARTIN STATE   CLEAR     77  46  33 W5        29.99R
ANNAPOLIS      CLEAR     70  54  56 NW3       29.99R
FORT MEADE*    CLEAR     63  55  77 CALM      30.03R

$$

MDZ012-015-019>023-250200-
MARYLAND EASTERN SHORE

CITY           SKY/WX    TMP DP  RH WIND       PRES   REMARKS
OCEAN CITY     CLEAR     68  56  65 SW7       30.01R
SALISBURY      CLEAR     67  56  67 SW8       30.01R
BAY BRIDGE AP* CLEAR     70  57  64 W9        29.99S
CAMBRIDGE*     CLEAR     68  55  64 CALM      30.00S
EASTON*        CLEAR     73  59  60 CALM      30.03S

$$

MDZ017>025-250200-
SOUTHERN MARYLAND

CITY           SKY/WX    TMP DP  RH WIND       PRES   REMARKS
PATUXENT RIVER PTCLDY    70  53  54 SW7       30.01R
ST INIGOES     PTCLDY    66  60  81 CALM      30.01R
LEONARDTOWN*   PTCLDY    68  54  60 CALM      30.03S

$$

MDZ003>005-250200-
NORTH CENTRAL MARYLAND

CITY           SKY/WX    TMP DP  RH WIND       PRES   REMARKS
FREDERICK*     CLEAR     66  54  63 CALM      30.04R
HAGERSTOWN APT CLEAR     75  46  35 W3        30.02R
WESTMINSTER*   CLEAR     73  70  88 W7        30.02R

$$

MDZ501>502-250200-
WESTERN MARYLAND

CITY           SKY/WX    TMP DP  RH WIND       PRES   REMARKS
OAKLAND*       NOT AVBL
CUMBERLAND*    CLEAR     75  43  31 NW3       30.09R

$$

VAZ025>031-250200-
SHENANDOAH VALLEY

CITY           SKY/WX    TMP DP  RH WIND       PRES   REMARKS
WINCHESTER*    MOCLDY    66  52  59 CALM      30.05R
FRONT ROYAL*   MOCLDY    68  54  60 CALM      30.05R
LURAY*         FAIR      64  54  68 CALM      30.07R
NEW MARKET*    FAIR      63  52  67 CALM      30.06R
STAUNTON*      FAIR      65  52  62 CALM      30.10R
WAYNESBORO*    FAIR      66  48  52 W6        30.09R

$$

WVZ021-048>050-054>055-250200-
EASTERN WEST VIRGINIA PANHANDLE

CITY           SKY/WX    TMP DP  RH WIND       PRES   REMARKS
MARTINSBURG    FAIR      65  53  65 SW3       30.03R
PETERSBURG*    FAIR      65  53  65 W7        30.09R

$$

VAZ036>039-050-250200-
CENTRAL FOOTHILLS

CITY           SKY/WX    TMP DP  RH WIND       PRES   REMARKS
CHARLOTTESVILL FAIR      75  53  46 VRB3      30.05R
CULPEPER*      FAIR      63  59  86 CALM      30.05R
ORANGE*        CLOUDY    68  61  77 CALM      30.07R
GORDONSVILLE*  CLOUDY    67  59  74 CALM      30.05R
WARRENTON*     FAIR      64  56  76 CALM      30.03R

$$

VAZ055>057-250200-
NORTH AND CENTRAL PIEDMONT

CITY           SKY/WX    TMP DP  RH WIND       PRES   REMARKS
FREDERICKSBRG* FAIR      68  57  68 CALM      30.02R
STAFFORD*      FAIR      63  59  86 CALM      30.07R

$$

NCZ024-NYZ072-PAZ021-071-VAZ022-071-250200-
OTHER REGIONAL OBSERVATIONS

CITY           SKY/WX    TMP DP  RH WIND       PRES   REMARKS
NEW YORK CITY  CLOUDY    69  49  48 CALM      29.99R
PHILADELPHIA   CLOUDY    78  47  33 W9        29.94R
PITTSBURGH     MOCLDY    73  47  39 W5        30.07R
ROANOKE        FAIR      72  52  49 W3        30.12R
RICHMOND       FAIR      69  58  67 S7        30.04R
RALEIGH        PTCLDY    71  53  52 SW3       30.10R

$$

ANZ530>537-250200-
MARINE OBSERVATIONS

STATION/POSITION TIME  TEMP    WIND        PRES
                       AIR SEA DIR/SP/G
                 (UTC) (F)     (DEG/KT/KT) (MB)
THOMAS PT LIGHT  0100   78 63  270/  7/  7 1017.0R
BALT KEY BRIDGE  0000   80                 1015.0R
COVE POINT       0000   78                 1016.5R
LEWISETTA        0000   74                 1016.0R
SOLOMONS ISLAND  0000   72                   N/A
PINEY POINT      0000          230/  5/  5   N/A

$$





USA.gov is the U.S. government's official web portal to all federal, state and local government web resources and services.